Regional Weather Roundup
Issued by NWS Cleveland, OH

Home | Current Version | Previous Version | Text Only | Print | Product List | Glossary On
Versions: 1 2 3 4 5 6 7 8 9 10 11 12 13 14 15 16 17 18 19 20 21 22 23 24 25 26 27 28 29 30 31 32 33 34 35 36 37 38 39 40 41 42 43 44 45 46 47 48 49 50
000
ASUS41 KCLE 250012
RWRCLE
OHIO REGIONAL WEATHER ROUNDUP
NATIONAL WEATHER SERVICE WILMINGTON, OH
800 PM EDT SUN JUL 24 2016

NOTE: "FAIR" INDICATES FEW OR NO CLOUDS BELOW 12,000 FEET WITH NO
SIGNIFICANT WEATHER AND/OR OBSTRUCTIONS TO VISIBILITY.

OHZ001>008-015>018-024>027-034-035-043-044-250100-
   NORTHWEST OHIO

CITY           SKY/WX    TMP DP  RH WIND       PRES   REMARKS
DEFIANCE       FAIR      87  75  67 S8        29.91S HX  96
FINDLAY        FAIR      86  71  60 SW9       29.93S HX  91
TOLEDO EXPRESS FAIR      82  76  81 CALM      29.91S
TOLEDO EXEC    FAIR      83  74  74 S7        29.93S
LIMA           FAIR      84  74  71 S7        29.95F HX  91
$$

OHZ009>014-019>023-028>033-038-089-250100-
   NORTHEAST OHIO

CITY           SKY/WX    TMP DP  RH WIND       PRES   REMARKS
CLE-HOPKINS    MOCLDY    83  67  58 CALM      29.99R
CLE-LAKEFRONT  FAIR      80  74  81 NE3       29.96R
CUY CO. ARPT   PTCLDY    86  72  62 S7        29.99R HX  92
LORAIN-ELYRIA  FAIR      79  71  76 S5        29.97R
ASHTABULA      FAIR      79  69  71 SW5       30.00R
AKRON-CANTON   MOCLDY    79  72  79 SE5       30.01R
WOOSTER        FAIR      79  71  76 SE5       30.00R
MANSFIELD      FAIR      82  71  69 S3        30.00R
YOUNGSTOWN     CLOUDY    79  72  79 CALM      30.01R
$$

OHZ042-051>053-060>062-070>072-077>081-250100-
  SOUTHWEST OHIO

CITY           SKY/WX    TMP DP  RH WIND       PRES   REMARKS
CINC-COVINGTON NOT AVBL
CINC-LUNKEN    FAIR      89  75  63 S8        29.95F HX  99
HAMILTON       FAIR      91  71  51 W7        29.96F HX  97
DAYTON         MOCLDY    86  73  65 SW8       29.98S HX  93
WRIGHT-PAT AFB CLEAR     90  75  61 SE3       29.96S HX 100
DAYTON GENERAL FAIR      91  69  48 W6        29.96F HX  96
WILMINGTON     FAIR      87  76  69 CALM      29.98R HX  97
$$

OHZ036-037-039>041-045>050-054>059-063>069-073>076-082>088-250100-
  CENTRAL AND SOUTHEAST OHIO

CITY           SKY/WX    TMP DP  RH WIND       PRES   REMARKS
COLUMBUS       MOCLDY    84  72  67 CALM      29.96F
OSU AIRPORT    FAIR      85  73  67 S6        29.97F HX  91
BOLTON FIELD   FAIR      83  75  77 CALM      29.98F HX  91
RICKENBACK AFB NOT AVBL
NEWARK         FAIR      81  73  76 CALM      29.98R
MARION         FAIR      82  69  64 SW9       29.97R
LANCASTER      FAIR      82  75  79 CALM      29.98F
ZANESVILLE     FAIR      84  71  65 E3        29.99S
NEW PHILLY     FAIR      83  73  72 CALM      30.00
$$



USA.gov is the U.S. government's official web portal to all federal, state and local government web resources and services.